SCP
0 0 0 0 0 0 0 0 0 0 0 0 0 0 0 0 0 0 0 0 0 0 0 0 0 0 0 0 0 0 0 0 0 0 0 0 0 0
0 0 0 0 0 0 0 0 0 0 0 0 0 0 0 0 0 0 0 0 0 0 0 0 0 0 0 0 0 0 0 0 0 0 0 0 0 0
0 0 0 0 0 0 0 0 0 0 0 0 0 0 0 0 0 0 0 0 0 0 0 0 0 0 0 0 0 0 0 0 0 0 0 0 0 0
0 0 0 0 0 0 0 0 0 0 0 0 0 0 0 0 0 0 0 0 0 0 0 0 0 0 0 0 0 0 0 0 0 0 0 0 0 0
0 0 0 0 0 0 0 0 0 0 0 0 0 0 0 0 0 0 0 0 0 0 0 0 0 0 0 0 0 0 0 0 0 0 0 0 0 0
0 0 0 0 0 0 0 0 0 0 0 0 0 0 0 0 0 0 0 0 0 0 0 0 0 0 0 0 0 0 0 0 0 0 0 0 0 0
0 0 0 0 0 0 0 0 0 0 0 0 0 0 0 0 0 0 0 0 0 0 0 0 0 0 0 0 0 0 0 0 0 0 0 0 0 0
0 0 0 0 0 0 0 0 0 0 0 0 0 0 0 0 0 0 0 0 0 0 0 0 0 0 0 0 0 0 0 0 0 0 0 0 0 0
0 0 0 0 0 0 0 0 0 0 0 0 0 0 0 0 0 0 0 0 0 0 0 0 0 0 0 0 0 0 0 0 0 0 0 0 0 0
0 0 0 0 0 0 0 0 0 0 0 0 0 0 0 0 0 0 0 0 0 0 0 0 0 0 0 0 0 0 0 0 0 0 0 0 0 0
0 0 0 0 0 0 0 0 0 0 0 0 0 0 0 0 0 0 0 0 0 0 0 0 0 0 0 0 0 0 0 0 0 0 0 0 0 0
0 0 0 0 0 0 0 0 0 0 0 0 0 0 0 0 0 0 0 0 0 0 0 0 0 0 0 0 0 0 0 0 0 0 0 0 0 0
0 0 0 0 0 0 0 0 0 0 0 0 0 0 0 0 0 0 0 0 0 0 0 0 0 0 0 0 0 0 0 0 0 0 0 0 0 0
0 0 0 0 0 0 0 0 0 0 0 0 0 0 0 0 0 0 0 0 0 0 0 0 0 0 0 0 0 0 0 0 0 0 0 0 0 0
0 0 0 0 0 0 0 0 0 0 0 0 0 0 0 0 0 0 0 0 0 0 0 0 0 0 0 0 0 0 0 0 0 0 0 0 0 0
0 0 0 0 0 0 0 0 0 0 0 0 0 0 0 0 0 0 0 0 0 0 0 0 0 0 0 0 0 0 0 0 0 0 0 0 0 0
0 0 0 0 0 0 0 0 0 0 0 0 0 0 0 0 0 0 0 0 0 0 0 0 0 0 0 0 0 0 0 0 0 0 0 0 0 0
0 0 0 0 0 0 0 0 0 0 0 0 0 0 0 0 0 0 0 0 0 0 0 0 0 0 0 0 0 0 0 0 0 0 0 0 0 0
0 0 0 0 0 0 0 0 0 0 0 0 0 0 0 0 0 0 0 0 0 0 0 0 0 0 0 0 0 0 0 0 0 0 0 0 0 0
0 0 0 0 0 0 0 0 0 0 0 0 0 0 0 0 0 0 0 0 0 0 0 0 0 0 0 0 0 0 0 0 0 0 0 0 0 0
0 0 0 0 0 0 0 0 0 0 0 0 0 0 0 0 0 0 0 0 0 0 0 0 0 0 0 0 0 0 0 0 0 0 0 0 0 0
0 0 0 0 0 0 0 0 0 0 0 0 0 0 0 0 0 0 0 0 0 0 0 0 0 0 0 0 0 0 0 0 0 0 0 0 0 0
0 0 0 0 0 0 0 0 0 0 0 0 0 0 0 0 0 0 0 0 0 0 0 0 0 0 0 0 0 0 0 0 0 0 0 0 0 0
Wind_Speed
4 3 2 2 2 2 2 3 3 3 3 4 3 2 3 4 10 7 6 18 24 24 24 24 24 24 25 25 25 25 25 25 26 26 26 27 27 27
3 3 2 2 2 2 2 3 4 4 4 4 4 4 6 8 14 8 8 22 22 23 23 24 24 25 25 25 25 25 26 26 26 26 27 27 27 27
2 2 2 2 2 2 2 2 3 4 6 5 4 4 5 8 9 8 9 8 10 21 24 25 25 25 25 25 25 26 26 26 26 27 27 27 27 27
2 1 2 2 3 3 3 4 4 4 5 8 4 4 6 7 8 9 10 10 8 19 24 25 25 25 25 25 26 26 26 26 26 27 27 27 27 27
1 1 2 2 3 3 4 4 4 5 5 6 7 4 5 6 7 9 10 8 10 15 20 22 24 25 25 26 26 27 27 26 26 26 26 26 26 27
2 1 2 3 4 5 4 5 5 5 5 5 7 6 5 6 6 7 9 6 8 11 15 17 20 23 24 26 26 27 27 27 26 26 26 26 26 26
2 3 3 5 7 6 5 5 4 4 4 5 6 7 7 6 7 7 11 9 8 9 8 7 9 9 12 19 22 25 26 27 27 27 27 27 27 27
3 3 5 5 8 11 13 13 12 7 6 5 6 8 10 9 8 9 11 12 11 4 5 9 8 10 8 7 19 26 27 27 28 27 27 26 26 25
2 3 4 5 8 5 10 14 13 16 16 10 9 10 11 10 11 12 11 11 13 8 9 13 9 11 9 12 24 27 28 28 27 26 25 24 24 24
2 3 4 5 7 9 6 6 6 7 11 9 9 10 11 10 10 11 11 11 10 8 7 11 11 11 11 8 21 27 26 25 24 24 24 25 25 25
3 4 5 5 13 16 8 7 8 8 13 18 20 19 22 22 18 9 7 10 12 10 5 6 6 9 10 11 13 20 21 23 25 26 26 25 25 24
3 4 8 11 14 16 8 7 9 9 9 10 11 13 12 13 18 8 6 9 10 8 3 4 5 7 9 5 5 7 12 20 25 25 25 25 24 15
3 4 5 15 17 18 15 7 12 13 6 6 7 8 8 7 7 6 6 7 10 10 7 5 7 5 8 10 6 7 10 10 10 14 20 23 23 17
4 4 7 16 18 18 13 14 18 14 5 6 7 7 7 8 8 8 9 9 11 14 13 10 10 10 11 14 12 8 7 9 10 12 10 16 18 20
5 11 14 16 15 10 13 16 12 5 6 7 8 8 7 8 9 9 9 9 11 13 12 12 12 11 11 13 12 12 12 10 10 9 7 8 9 10
6 8 13 13 10 11 10 8 5 6 7 7 8 9 9 8 8 7 9 9 10 11 9 9 11 12 12 13 13 15 13 10 8 9 11 12 11 10
5 3 4 5 5 5 6 5 5 6 6 7 8 9 9 9 9 7 6 7 9 12 13 9 7 9 13 14 14 15 14 13 12 11 11 13 12 10
6 4 5 5 6 7 8 8 7 7 7 8 8 9 9 9 10 9 8 9 10 11 12 11 10 11 8 10 16 16 13 12 12 11 12 14 15 10
3 4 5 6 6 6 7 8 8 8 7 8 8 9 9 9 9 10 9 9 10 11 11 10 9 10 13 14 9 13 12 13 13 13 12 13 15 13
3 4 5 6 6 7 7 8 8 9 8 8 9 9 9 9 10 10 10 10 11 12 12 10 8 9 11 14 14 13 15 14 13 14 13 12 13 18
5 5 6 6 7 7 7 8 8 9 9 9 9 10 9 9 10 10 10 16 14 11 13 13 12 17 13 10 12 12 11 14 16 15 15 14 13 11
6 6 7 7 7 7 8 8 8 9 10 9 9 9 9 9 10 12 11 11 11 11 13 13 12 11 10 11 14 15 16 15 16 21 20 18 11 8
6 7 7 7 7 7 7 8 10 9 9 9 9 9 10 10 10 10 11 11 11 12 13 13 12 10 10 11 12 13 17 17 13 12 12 15 17 17
Wind_Direction
130 135 135 156 155 161 163 165 184 258 278 269 282 282 305 307 306 306 294 306 305 304 305 303 301 301 300 298 297 295 294 293 291 289 286 284 281 279
135 144 155 177 174 175 183 188 186 204 250 254 252 274 296 303 305 308 294 304 306 303 300 301 301 299 298 297 296 295 294 292 291 289 287 286 284 282
133 161 200 199 198 206 205 208 212 205 252 266 249 270 279 284 295 291 289 285 287 298 300 300 299 299 298 298 296 295 294 293 292 291 290 288 286 284
135 177 231 228 224 223 222 229 232 225 239 274 273 266 266 274 281 284 294 293 287 295 298 299 300 299 297 296 295 296 296 295 293 291 288 286 283 281
94 254 262 250 252 247 242 243 244 250 240 266 282 271 270 277 283 283 283 280 285 292 297 298 296 296 296 296 298 298 296 294 292 289 286 283 280 277
31 327 291 262 253 253 251 248 249 256 261 268 280 283 279 278 279 290 296 279 284 290 288 289 291 295 294 295 295 294 293 291 288 286 283 281 280 278
357 327 303 295 286 280 270 254 247 249 260 268 280 289 291 295 294 292 298 297 284 276 274 275 281 278 282 286 290 289 287 286 286 286 285 283 281 278
330 321 313 309 310 318 312 304 296 287 283 275 283 289 293 291 293 294 297 300 299 268 280 289 281 281 278 270 283 288 289 289 289 288 285 282 280 278
320 320 322 321 331 301 299 302 300 298 297 294 289 286 288 288 288 288 287 288 291 293 293 292 286 285 281 284 290 290 291 290 289 287 286 284 283 282
294 290 292 295 302 302 284 279 271 277 284 284 271 272 276 277 273 284 291 293 287 282 275 284 287 285 286 280 286 286 287 288 289 290 290 288 285 282
291 294 305 295 305 312 308 292 286 282 293 294 293 295 298 302 303 301 297 298 296 293 273 266 278 291 286 275 274 281 286 290 291 291 289 286 284 283
297 294 311 314 311 315 307 295 296 293 290 295 298 299 297 293 298 290 278 285 291 293 257 261 286 308 298 261 252 269 281 285 287 288 288 287 286 282
305 303 300 316 316 315 316 305 297 304 306 305 301 297 295 289 286 276 265 269 280 277 279 288 284 277 274 289 279 265 272 279 283 283 286 285 283 278
302 293 295 313 318 321 321 311 313 322 321 306 299 297 298 297 295 291 284 273 266 271 277 275 276 279 282 285 289 285 279 277 278 280 276 280 280 279
296 307 314 321 326 325 316 318 326 320 303 299 298 296 291 288 291 292 289 281 276 270 268 261 261 269 270 275 280 286 293 289 276 270 269 267 269 270
301 313 327 331 327 318 317 318 307 293 300 297 297 296 296 294 291 290 294 298 295 291 273 253 250 257 267 270 274 280 279 277 278 275 277 276 269 260
335 347 331 324 322 317 312 305 301 305 305 298 297 298 299 298 295 293 284 290 288 293 299 295 259 251 255 264 272 271 273 273 271 274 277 279 273 261
353 330 321 318 315 316 316 314 311 306 302 301 297 294 295 296 296 294 288 289 290 290 291 295 300 297 282 256 239 258 267 271 275 275 273 279 281 270
345 312 307 307 306 305 304 304 304 302 299 296 293 292 292 293 293 295 296 294 291 290 290 290 291 294 299 301 272 234 257 278 283 281 275 273 278 280
314 302 303 303 303 303 303 302 302 303 301 297 294 292 291 292 294 294 294 293 294 295 296 293 286 285 287 291 293 284 267 268 278 283 283 278 274 275
312 305 301 301 300 299 299 298 298 298 297 297 294 292 292 292 292 292 293 295 297 296 297 297 291 295 290 285 285 288 289 279 277 281 287 287 286 282
307 304 302 299 299 297 296 295 296 296 296 294 292 292 291 290 291 293 293 295 296 294 294 294 295 298 295 295 295 297 301 302 297 293 285 277 280 284
305 303 301 300 297 294 293 293 293 293 292 291 292 293 294 294 292 291 292 294 296 298 302 304 305 303 301 299 298 299 301 305 307 308 301 294 291 286